Year,Month,Day,Hour,Minute,Value (Times are PST for temperature in C)
2019,05,18,00,00,11.10
2019,05,18,00,01,11.10
2019,05,18,00,02,11.10
2019,05,18,00,03,11.10
2019,05,18,00,04,11.10
2019,05,18,00,05,11.20
2019,05,18,00,06,11.20
2019,05,18,00,07,11.20
2019,05,18,00,08,11.20
2019,05,18,00,09,11.20
2019,05,18,00,10,11.20
2019,05,18,00,11,11.20
2019,05,18,00,12,11.20
2019,05,18,00,13,11.20
2019,05,18,00,14,11.20
2019,05,18,00,15,11.20
2019,05,18,00,16,11.20
2019,05,18,00,17,11.20
2019,05,18,00,18,11.20
2019,05,18,00,19,11.20
2019,05,18,00,20,11.20
2019,05,18,00,21,11.20
2019,05,18,00,22,11.20
2019,05,18,00,23,11.20
2019,05,18,00,24,11.20
2019,05,18,00,25,11.20
2019,05,18,00,26,11.20
2019,05,18,00,27,11.20
2019,05,18,00,28,11.20
2019,05,18,00,29,11.20
2019,05,18,00,30,11.20
2019,05,18,00,31,11.20
2019,05,18,00,32,11.20
2019,05,18,00,33,11.20
2019,05,18,00,34,11.30
2019,05,18,00,35,11.30
2019,05,18,00,36,11.30
2019,05,18,00,37,11.30
2019,05,18,00,38,11.20
2019,05,18,00,39,11.20
2019,05,18,00,40,11.20
2019,05,18,00,41,11.20
2019,05,18,00,42,11.20
2019,05,18,00,43,11.30
2019,05,18,00,44,11.30
2019,05,18,00,45,11.20
2019,05,18,00,46,11.20
2019,05,18,00,47,11.20
2019,05,18,00,48,11.20
2019,05,18,00,49,11.20
2019,05,18,00,50,11.20
2019,05,18,00,51,11.20
2019,05,18,00,52,11.20
2019,05,18,00,53,11.30
2019,05,18,00,54,11.30
2019,05,18,00,55,11.30
2019,05,18,00,56,11.30
2019,05,18,00,57,11.30
2019,05,18,00,58,11.30
2019,05,18,00,59,11.30
2019,05,18,01,00,11.30
2019,05,18,01,01,11.30
2019,05,18,01,02,11.30
2019,05,18,01,03,11.30
2019,05,18,01,04,11.30
2019,05,18,01,05,11.30
2019,05,18,01,06,11.40
2019,05,18,01,07,11.40
2019,05,18,01,08,11.40
2019,05,18,01,09,11.40
2019,05,18,01,10,11.40
2019,05,18,01,11,11.40
2019,05,18,01,12,11.40
2019,05,18,01,13,11.40
2019,05,18,01,14,11.40
2019,05,18,01,15,11.40
2019,05,18,01,16,11.40
2019,05,18,01,17,11.40
2019,05,18,01,18,11.30
2019,05,18,01,19,11.30
2019,05,18,01,20,11.30
2019,05,18,01,21,11.30
2019,05,18,01,22,11.30
2019,05,18,01,23,11.30
2019,05,18,01,24,11.30
2019,05,18,01,25,11.30
2019,05,18,01,26,11.30
2019,05,18,01,27,11.20
2019,05,18,01,28,11.20
2019,05,18,01,29,11.20
2019,05,18,01,30,11.20
2019,05,18,01,31,11.20
2019,05,18,01,32,11.20
2019,05,18,01,33,11.20
2019,05,18,01,34,11.20
2019,05,18,01,35,11.20
2019,05,18,01,36,11.20
2019,05,18,01,37,11.20
2019,05,18,01,38,11.20
2019,05,18,01,39,11.20
2019,05,18,01,40,11.20
2019,05,18,01,41,11.20
2019,05,18,01,42,11.20
2019,05,18,01,43,11.20
2019,05,18,01,44,11.20
2019,05,18,01,45,11.20
2019,05,18,01,46,11.20
2019,05,18,01,47,11.20
2019,05,18,01,48,11.20
2019,05,18,01,49,11.20
2019,05,18,01,50,11.20
2019,05,18,01,51,11.20
2019,05,18,01,52,11.20
2019,05,18,01,53,11.20
2019,05,18,01,54,11.20
2019,05,18,01,55,11.20
2019,05,18,01,56,11.20
2019,05,18,01,57,11.20
2019,05,18,01,58,11.20
2019,05,18,01,59,11.20
2019,05,18,02,00,11.20
2019,05,18,02,01,11.20
2019,05,18,02,02,11.20
2019,05,18,02,03,11.20
2019,05,18,02,04,11.20
2019,05,18,02,05,11.20
2019,05,18,02,06,11.20
2019,05,18,02,07,11.20
2019,05,18,02,08,11.20
2019,05,18,02,09,11.20
2019,05,18,02,10,11.20
2019,05,18,02,11,11.20
2019,05,18,02,12,11.20
2019,05,18,02,13,11.20
2019,05,18,02,14,11.20
2019,05,18,02,15,11.20
2019,05,18,02,16,11.20
2019,05,18,02,17,11.20
2019,05,18,02,18,11.20
2019,05,18,02,19,11.20
2019,05,18,02,20,11.20
2019,05,18,02,21,11.30
2019,05,18,02,22,11.30
2019,05,18,02,23,11.30
2019,05,18,02,24,11.30
2019,05,18,02,25,11.30
2019,05,18,02,26,11.30
2019,05,18,02,27,11.30
2019,05,18,02,28,11.30
2019,05,18,02,29,11.30
2019,05,18,02,30,11.30
2019,05,18,02,31,11.30
2019,05,18,02,32,11.30
2019,05,18,02,33,11.30
2019,05,18,02,34,11.30
2019,05,18,02,35,11.30
2019,05,18,02,36,11.30
2019,05,18,02,37,11.30
2019,05,18,02,38,11.30
2019,05,18,02,39,11.30
2019,05,18,02,40,11.30
2019,05,18,02,41,11.30
2019,05,18,02,42,11.30
2019,05,18,02,43,11.30
2019,05,18,02,44,11.20
2019,05,18,02,45,11.20
2019,05,18,02,46,11.20
2019,05,18,02,47,11.20
2019,05,18,02,48,11.20
2019,05,18,02,49,11.20
2019,05,18,02,50,11.10
2019,05,18,02,51,11.10
2019,05,18,02,52,11.10
2019,05,18,02,53,11.10
2019,05,18,02,54,11.10
2019,05,18,02,55,11.10
2019,05,18,02,56,11.10
2019,05,18,02,57,11.10
2019,05,18,02,58,11.10
2019,05,18,02,59,11.10
2019,05,18,03,00,11.10
2019,05,18,03,01,11.10
2019,05,18,03,02,11.10
2019,05,18,03,03,11.00
2019,05,18,03,04,10.90
2019,05,18,03,05,10.90
2019,05,18,03,06,10.90
2019,05,18,03,07,10.90
2019,05,18,03,08,10.90
2019,05,18,03,09,10.90
2019,05,18,03,10,10.90
2019,05,18,03,11,10.90
2019,05,18,03,12,10.80
2019,05,18,03,13,10.80
2019,05,18,03,14,10.80
2019,05,18,03,15,10.80
2019,05,18,03,16,10.70
2019,05,18,03,17,10.70
2019,05,18,03,18,10.70
2019,05,18,03,19,10.70
2019,05,18,03,20,10.60
2019,05,18,03,21,10.60
2019,05,18,03,22,10.60
2019,05,18,03,23,10.60
2019,05,18,03,24,10.60
2019,05,18,03,25,10.60
2019,05,18,03,26,10.60
2019,05,18,03,27,10.60
2019,05,18,03,28,10.60
2019,05,18,03,29,10.60
2019,05,18,03,30,10.60
2019,05,18,03,31,10.50
2019,05,18,03,32,10.40
2019,05,18,03,33,10.40
2019,05,18,03,34,10.40
2019,05,18,03,35,10.40
2019,05,18,03,36,10.40
2019,05,18,03,37,10.40
2019,05,18,03,38,10.40
2019,05,18,03,39,10.40
2019,05,18,03,40,10.40
2019,05,18,03,41,10.40
2019,05,18,03,42,10.40
2019,05,18,03,43,10.40
2019,05,18,03,44,10.40
2019,05,18,03,45,10.40
2019,05,18,03,46,10.40
2019,05,18,03,47,10.40
2019,05,18,03,48,10.40
2019,05,18,03,49,10.40
2019,05,18,03,50,10.40
2019,05,18,03,51,10.40
2019,05,18,03,52,10.40
2019,05,18,03,53,10.40
2019,05,18,03,54,10.40
2019,05,18,03,55,10.40
2019,05,18,03,56,10.40
2019,05,18,03,57,10.30
2019,05,18,03,58,10.30
2019,05,18,03,59,10.30
2019,05,18,04,00,10.30
2019,05,18,04,01,10.30
2019,05,18,04,02,10.20
2019,05,18,04,03,10.20
2019,05,18,04,04,10.20
2019,05,18,04,05,10.20
2019,05,18,04,06,10.10
2019,05,18,04,07,10.10
2019,05,18,04,08,10.10
2019,05,18,04,09,10.10
2019,05,18,04,10,10.10
2019,05,18,04,11,10.10
2019,05,18,04,12,10.10
2019,05,18,04,13,10.10
2019,05,18,04,14,10.00
2019,05,18,04,15,9.90
2019,05,18,04,16,9.90
2019,05,18,04,17,9.90
2019,05,18,04,18,9.90
2019,05,18,04,19,9.90
2019,05,18,04,20,9.90
2019,05,18,04,21,9.90
2019,05,18,04,22,9.90
2019,05,18,04,23,9.90
2019,05,18,04,24,9.90
2019,05,18,04,25,9.90
2019,05,18,04,26,9.90
2019,05,18,04,27,9.90
2019,05,18,04,28,9.90
2019,05,18,04,29,9.90
2019,05,18,04,30,9.80
2019,05,18,04,31,9.80
2019,05,18,04,32,9.80
2019,05,18,04,33,9.80
2019,05,18,04,34,9.80
2019,05,18,04,35,9.80
2019,05,18,04,36,9.80
2019,05,18,04,37,9.80
2019,05,18,04,38,9.70
2019,05,18,04,39,9.70
2019,05,18,04,40,9.70
2019,05,18,04,41,9.70
2019,05,18,04,42,9.70
2019,05,18,04,43,9.70
2019,05,18,04,44,9.70
2019,05,18,04,45,9.70
2019,05,18,04,46,9.70
2019,05,18,04,47,9.70
2019,05,18,04,48,9.70
2019,05,18,04,49,9.70
2019,05,18,04,50,9.70
2019,05,18,04,51,9.70
2019,05,18,04,52,9.70
2019,05,18,04,53,9.60
2019,05,18,04,54,9.60
2019,05,18,04,55,9.60
2019,05,18,04,56,9.60
2019,05,18,04,57,9.60
2019,05,18,04,58,9.50
2019,05,18,04,59,9.50
2019,05,18,05,00,9.50
2019,05,18,05,01,9.40
2019,05,18,05,02,9.40
2019,05,18,05,03,9.40
2019,05,18,05,04,9.40
2019,05,18,05,05,9.40
2019,05,18,05,06,9.40
2019,05,18,05,07,9.40
2019,05,18,05,08,9.40
2019,05,18,05,09,9.40
2019,05,18,05,10,9.40
2019,05,18,05,11,9.30
2019,05,18,05,12,9.30
2019,05,18,05,13,9.30
2019,05,18,05,14,9.30
2019,05,18,05,15,9.30
2019,05,18,05,16,9.30
2019,05,18,05,17,9.30
2019,05,18,05,18,9.30
2019,05,18,05,19,9.30
2019,05,18,05,20,9.30
2019,05,18,05,21,9.30
2019,05,18,05,22,9.30
2019,05,18,05,23,9.30
2019,05,18,05,24,9.20
2019,05,18,05,25,9.20
2019,05,18,05,26,9.20
2019,05,18,05,27,9.20
2019,05,18,05,28,9.20
2019,05,18,05,29,9.20
2019,05,18,05,30,9.20
2019,05,18,05,31,9.20
2019,05,18,05,32,9.20
2019,05,18,05,33,9.20
2019,05,18,05,34,9.20
2019,05,18,05,35,9.20
2019,05,18,05,36,9.20
2019,05,18,05,37,9.20
2019,05,18,05,38,9.20
2019,05,18,05,39,9.30
2019,05,18,05,40,9.30
2019,05,18,05,41,9.30
2019,05,18,05,42,9.30
2019,05,18,05,43,9.30
2019,05,18,05,44,9.30
2019,05,18,05,45,9.30
2019,05,18,05,46,9.30
2019,05,18,05,47,9.30
2019,05,18,05,48,9.40
2019,05,18,05,49,9.40
2019,05,18,05,50,9.40
2019,05,18,05,51,9.40
2019,05,18,05,52,9.40
2019,05,18,05,53,9.40
2019,05,18,05,54,9.40
2019,05,18,05,55,9.40
2019,05,18,05,56,9.40
2019,05,18,05,57,9.40
2019,05,18,05,58,9.40
2019,05,18,05,59,9.40
2019,05,18,06,00,9.40
2019,05,18,06,01,9.40
2019,05,18,06,02,9.40
2019,05,18,06,03,9.40
2019,05,18,06,04,9.40
2019,05,18,06,05,9.40
2019,05,18,06,06,9.40
2019,05,18,06,07,9.40
2019,05,18,06,08,9.40
2019,05,18,06,09,9.40
2019,05,18,06,10,9.40
2019,05,18,06,11,9.40
2019,05,18,06,12,9.40
2019,05,18,06,13,9.40
2019,05,18,06,14,9.40
2019,05,18,06,15,9.40
2019,05,18,06,16,9.40
2019,05,18,06,17,9.40
2019,05,18,06,18,9.50
2019,05,18,06,19,9.50
2019,05,18,06,20,9.50
2019,05,18,06,21,9.50
2019,05,18,06,22,9.50
2019,05,18,06,23,9.50
2019,05,18,06,24,9.50
2019,05,18,06,25,9.50
2019,05,18,06,26,9.50
2019,05,18,06,27,9.50
2019,05,18,06,28,9.50
2019,05,18,06,29,9.50
2019,05,18,06,30,9.50
2019,05,18,06,31,9.50
2019,05,18,06,32,9.50
2019,05,18,06,33,9.50
2019,05,18,06,34,9.50
2019,05,18,06,35,9.50
2019,05,18,06,37,9.50
2019,05,18,06,38,9.50
2019,05,18,06,39,9.50
2019,05,18,06,40,9.50
2019,05,18,06,41,9.50
2019,05,18,06,42,9.50
2019,05,18,06,43,9.50
2019,05,18,06,44,9.50
2019,05,18,06,45,9.50
2019,05,18,06,46,9.60
2019,05,18,06,47,9.60
2019,05,18,06,48,9.60
2019,05,18,06,49,9.60
2019,05,18,06,50,9.60
2019,05,18,06,51,9.60
2019,05,18,06,52,9.60
2019,05,18,06,53,9.60
2019,05,18,06,54,9.70
2019,05,18,06,55,9.70
2019,05,18,06,56,9.70
2019,05,18,06,57,9.70
2019,05,18,06,58,9.70
2019,05,18,06,59,9.70
2019,05,18,07,00,9.70
2019,05,18,07,01,9.70
2019,05,18,07,02,9.70
2019,05,18,07,03,9.70
2019,05,18,07,04,9.80
2019,05,18,07,05,9.80
2019,05,18,07,06,9.80
2019,05,18,07,07,9.80
2019,05,18,07,08,9.80
2019,05,18,07,09,9.80
2019,05,18,07,10,9.80
2019,05,18,07,11,9.80
2019,05,18,07,12,9.90
2019,05,18,07,13,9.90
2019,05,18,07,14,9.90
2019,05,18,07,15,9.90
2019,05,18,07,16,9.90
2019,05,18,07,17,9.90
2019,05,18,07,18,9.90
2019,05,18,07,19,9.90
2019,05,18,07,20,9.90
2019,05,18,07,21,9.90
2019,05,18,07,22,9.90
2019,05,18,07,23,10.00
2019,05,18,07,24,10.10
2019,05,18,07,25,10.10
2019,05,18,07,26,10.10
2019,05,18,07,27,10.10
2019,05,18,07,28,10.10
2019,05,18,07,29,10.10
2019,05,18,07,30,10.10
2019,05,18,07,31,10.10
2019,05,18,07,32,10.10
2019,05,18,07,33,10.10
2019,05,18,07,34,10.10
2019,05,18,07,35,10.10
2019,05,18,07,36,10.10
2019,05,18,07,37,10.10
2019,05,18,07,38,10.10
2019,05,18,07,39,10.10
2019,05,18,07,40,10.10
2019,05,18,07,41,10.10
2019,05,18,07,42,10.10
2019,05,18,07,43,10.10
2019,05,18,07,44,10.10
2019,05,18,07,45,10.10
2019,05,18,07,46,10.10
2019,05,18,07,47,10.10
2019,05,18,07,48,10.20
2019,05,18,07,49,10.20
2019,05,18,07,50,10.20
2019,05,18,07,51,10.20
